Regional Weather Roundup
Issued by NWS

Home | Current Version | Previous Version | Graphics & Text | Print | Product List | Glossary On
Versions: 1 2 3 4 5 6 7 8 9 10 11 12 13 14 15 16 17 18 19 20 21 22 23 24 25 26 27 28 29 30 31 32 33 34 35 36 37 38 39 40 41 42 43 44 45 46 47 48 49 50
000
ASUS44 KMEG 220610
RWRTN
TENNESSEE HOURLY STATE WEATHER ROUNDUP
NATIONAL WEATHER SERVICE MEMPHIS TN
1200 AM CST SAT NOV 22 2014

TNZ002-004-019-021-049-052-054-088>092-220700-
WEST TENNESSEE

CITY           SKY/WX    TMP DP  RH WIND       PRES   REMARKS
MEMPHIS INTL   CLOUDY    56  46  69 SE3       30.28S
NWS MEMPHIS      N/A     50 N/A N/A MISG        N/A
JACKSON        CLOUDY    53  38  56 SE3       30.31S
DYERSBURG      CLOUDY    48  28  46 SE5       30.30S
UNION CITY     MOCLDY    45  36  70 SE6       30.28S
PARIS          CLOUDY    46  30  53 SE7       30.31R
HUNTINGDON     CLOUDY    46  32  58 SE5       30.32R
LEXINGTON      CLOUDY    43  37  81 CALM      30.31R
SAVANNAH       CLOUDY    54  37  54 SE8       30.33R
$$

TNZ008-025-027-028-033-062-065-066-220700-
NORTH MIDDLE TENNESSEE

CITY           SKY/WX    TMP DP  RH WIND       PRES   REMARKS
NASHVILLE      CLOUDY    45  27  49 CALM      30.36S
CLARKSVILLE    CLOUDY    46  24  42 SE6       30.33S
SMYRNA         PTCLDY    38  28  67 CALM      30.38S
COOKEVILLE     CLEAR     30  27  86 CALM      30.38R
CROSSVILLE     CLEAR     39  13  34 CALM      30.38F
$$

TNZ061-075-076-078-094-096-097-220700-
SOUTH MIDDLE TENNESSEE

CITY           SKY/WX    TMP DP  RH WIND       PRES   REMARKS
FAYETTEVILLE   CLOUDY    46  30  53 MISG      30.36S
TULLAHOMA      CLEAR     43  27  52 SE5       30.37F
WINCHESTER     CLEAR     43  27  52 CALM      30.38F
MCMINNVILLE    CLEAR     32  28  86 CALM      30.37S
COLUMBIA       PTCLDY    43  39  87 CALM      30.33S
SHELBYVILLE    CLEAR     45  30  57 CALM      30.37F
$$

TNZ017-018-042-046-047-220700-
NORTHEAST TENNESSEE

CITY           SKY/WX    TMP DP  RH WIND       PRES   REMARKS
TRI CITIES     CLEAR     24  17  74 CALM      30.44S
ELIZABETHTON   CLEAR     28  10  47 NE3       30.44S
$$

TNZ012-013-036-069-073-074-220700-
CENTRAL EAST TENNESSEE

CITY           SKY/WX    TMP DP  RH WIND       PRES   REMARKS
KNOXVILLE      PTCLDY    31  20  63 CALM      30.42F
OAK RIDGE      CLEAR     29  24  82 CALM      30.45S
GATLINBURG     CLEAR     25  19  80 CALM      30.42F
MORRISTOWN     CLEAR     32  16  51 NE6       30.42F WCI  26
$$

TNZ083-085-099-220700-
SOUTHEAST TENNESSEE

CITY           SKY/WX    TMP DP  RH WIND       PRES   REMARKS
CHATTANOOGA    CLEAR     33  28  81 CALM      30.43F
$$

SKY/WX REPORTED AS FAIR MEANS FEW OR NO CLOUDS BELOW
12 THOUSAND FEET.



USA.gov is the U.S. government's official web portal to all federal, state and local government web resources and services.